ISS DEB (52952 NORAD) Tracking and Keplerian Element Data

This shows tracking and keplerian element data for the satellite.

Feedback or suggestion? Click here.




ElementValue
Catalog52952
NameISS DEB
Epoch Orbit2206
Epoch Day325.23969973
Epoch Year2022
RAAN268.0213
Inclination51.632
Eccentricity0.0010953
Argument of Perigee122.1259
Mean Anonmoly238.0807
Mean Motion15.81010737
Decay Rate0.00312516
L11 52952U 98067TP 22325.23969973 .00312516 00000+0 15130-2 0 9994
L22 52952 51.6320 268.0213 0010953 122.1259 238.0807 15.81010737 22065



Live tracking and technical data element details for ISS DEB (NORAD 52952). ISS DEB can be tracked NOW for your location showing map with azimuth and elevation plus other details from your city location.







IsCatalogInMostPopularTable: catalog: 52952, numindb: 199
Update: records affected: 1



GetName: 52952 ISS DEB

Hit Count: updated at: Mon, 17 Nov 2025 06:06:24 GMT